N2FC X04-KLAL

Flight info

Callsign N2FC
Flight time N/A
Altitude 4500
Route VPFSY VPTCK VPKER
Aircraft C172/L-VGD/C

Departure

Time N/A
Airport X04

Arrival

Time 2026-04-26 20:34
Airport Lakeland Linder International Airport (KLAL)
Time Latitude Longitude Altitude Speed Heading
2026-04-26 19:50 28.70396 -81.58040 112 ft 0 kts 73°
2026-04-26 19:54 28.70398 -81.58034 112 ft 2 kts 70°
2026-04-26 19:55 28.70413 -81.58011 113 ft 4 kts 22°
2026-04-26 19:55 28.70416 -81.58009 113 ft 0 kts 31°
2026-04-26 19:55 28.70415 -81.58007 113 ft 0 kts 158°
2026-04-26 19:56 28.70408 -81.58004 113 ft 3 kts 153°
2026-04-26 19:56 28.70393 -81.57989 112 ft 0 kts 123°
2026-04-26 19:57 28.70390 -81.57983 112 ft 2 kts 106°
2026-04-26 19:57 28.70389 -81.57962 112 ft 4 kts 86°
2026-04-26 19:57 28.70393 -81.57954 112 ft 1 kts 28°
2026-04-26 19:57 28.70402 -81.57954 113 ft 0 kts 326°
2026-04-26 19:58 28.70456 -81.57996 115 ft 31 kts 325°
2026-04-26 19:58 28.70760 -81.58208 123 ft 67 kts 326°
2026-04-26 19:58 28.71156 -81.58462 273 ft 64 kts 327°
2026-04-26 19:58 28.71578 -81.58710 358 ft 73 kts 332°
2026-04-26 19:59 28.71960 -81.59077 492 ft 68 kts 278°
2026-04-26 19:59 28.71786 -81.59533 648 ft 67 kts 228°
2026-04-26 19:59 28.71456 -81.59898 799 ft 67 kts 211°
2026-04-26 19:59 28.70968 -81.59804 907 ft 79 kts 157°
2026-04-26 20:00 28.70498 -81.59481 1045 ft 82 kts 152°
2026-04-26 20:00 28.70027 -81.59077 1180 ft 84 kts 145°
2026-04-26 20:00 28.69500 -81.58832 1309 ft 81 kts 181°
2026-04-26 20:00 28.68963 -81.58870 1479 ft 76 kts 190°
2026-04-26 20:01 28.68446 -81.59012 1604 ft 75 kts 210°
2026-04-26 20:01 28.67948 -81.59253 1751 ft 75 kts 207°
2026-04-26 20:01 28.67446 -81.59482 1888 ft 77 kts 207°
2026-04-26 20:01 28.66955 -81.59710 2033 ft 76 kts 211°
2026-04-26 20:02 28.66469 -81.59940 2173 ft 75 kts 210°
2026-04-26 20:02 28.65940 -81.60181 2309 ft 77 kts 210°
2026-04-26 20:02 28.65399 -81.60423 2455 ft 77 kts 209°
2026-04-26 20:02 28.65028 -81.60588 2551 ft 78 kts 209°
2026-04-26 20:03 28.64283 -81.60912 2748 ft 78 kts 208°
2026-04-26 20:03 28.63725 -81.61153 2885 ft 79 kts 211°
2026-04-26 20:03 28.63192 -81.61382 3008 ft 80 kts 210°
2026-04-26 20:03 28.62629 -81.61621 3138 ft 81 kts 208°
2026-04-26 20:04 28.62058 -81.61861 3279 ft 80 kts 210°
2026-04-26 20:04 28.61497 -81.62099 3416 ft 80 kts 208°
2026-04-26 20:04 28.60929 -81.62338 3551 ft 81 kts 208°
2026-04-26 20:04 28.60371 -81.62573 3686 ft 81 kts 209°
2026-04-26 20:05 28.59818 -81.62806 3816 ft 81 kts 209°
2026-04-26 20:05 28.59278 -81.63037 3937 ft 82 kts 210°
2026-04-26 20:05 28.58733 -81.63268 4054 ft 82 kts 209°
2026-04-26 20:05 28.58156 -81.63516 4095 ft 92 kts 210°
2026-04-26 20:06 28.57502 -81.63802 4104 ft 102 kts 210°
2026-04-26 20:06 28.56795 -81.64111 4101 ft 109 kts 210°
2026-04-26 20:06 28.56063 -81.64424 4096 ft 111 kts 208°
2026-04-26 20:06 28.55344 -81.64726 4096 ft 108 kts 210°
2026-04-26 20:07 28.54627 -81.65027 4094 ft 106 kts 208°
2026-04-26 20:07 28.53932 -81.65318 4096 ft 105 kts 208°
2026-04-26 20:07 28.53251 -81.65605 4098 ft 105 kts 209°
2026-04-26 20:07 28.52556 -81.65895 4100 ft 105 kts 208°
2026-04-26 20:08 28.51881 -81.66177 4099 ft 104 kts 209°
2026-04-26 20:08 28.51187 -81.66470 4098 ft 103 kts 208°
2026-04-26 20:08 28.50511 -81.66749 4103 ft 103 kts 208°
2026-04-26 20:08 28.49817 -81.67031 4099 ft 107 kts 206°
2026-04-26 20:09 28.49096 -81.67329 4093 ft 110 kts 209°
2026-04-26 20:09 28.48364 -81.67637 4088 ft 111 kts 208°
2026-04-26 20:09 28.47602 -81.67958 4093 ft 112 kts 209°
2026-04-26 20:09 28.46856 -81.68272 4095 ft 113 kts 209°
2026-04-26 20:10 28.46104 -81.68587 4092 ft 114 kts 208°
2026-04-26 20:10 28.45357 -81.68900 4092 ft 114 kts 208°
2026-04-26 20:10 28.44633 -81.69197 4285 ft 96 kts 207°
2026-04-26 20:10 28.44020 -81.69442 4424 ft 93 kts 209°
2026-04-26 20:11 28.43357 -81.69720 4452 ft 102 kts 209°
2026-04-26 20:11 28.42640 -81.70012 4447 ft 110 kts 204°
2026-04-26 20:11 28.41879 -81.70310 4447 ft 114 kts 204°
2026-04-26 20:12 28.40311 -81.70946 4448 ft 117 kts 206°
2026-04-26 20:12 28.39507 -81.71280 4447 ft 118 kts 206°
2026-04-26 20:12 28.38716 -81.71609 4447 ft 118 kts 206°
2026-04-26 20:12 28.37909 -81.71947 4453 ft 119 kts 205°
2026-04-26 20:13 28.37119 -81.72276 4449 ft 119 kts 205°
2026-04-26 20:13 28.36330 -81.72605 4446 ft 118 kts 206°
2026-04-26 20:13 28.35551 -81.72933 4324 ft 118 kts 206°
2026-04-26 20:13 28.34778 -81.73261 4204 ft 118 kts 206°
2026-04-26 20:14 28.34016 -81.73583 4089 ft 118 kts 205°
2026-04-26 20:14 28.33239 -81.73908 3958 ft 118 kts 205°
2026-04-26 20:14 28.32470 -81.74229 3831 ft 119 kts 205°
2026-04-26 20:14 28.31668 -81.74564 3703 ft 124 kts 206°
2026-04-26 20:15 28.30824 -81.74915 3564 ft 127 kts 205°
2026-04-26 20:15 28.29983 -81.75268 3420 ft 128 kts 205°
2026-04-26 20:15 28.29135 -81.75620 3279 ft 129 kts 205°
2026-04-26 20:15 28.28284 -81.75974 3137 ft 129 kts 206°
2026-04-26 20:16 28.27417 -81.76338 2991 ft 129 kts 206°
2026-04-26 20:16 28.26558 -81.76696 2846 ft 129 kts 206°
2026-04-26 20:16 28.25707 -81.77050 2701 ft 128 kts 205°
2026-04-26 20:16 28.24870 -81.77400 2556 ft 128 kts 206°
2026-04-26 20:17 28.24022 -81.77752 2413 ft 128 kts 206°
2026-04-26 20:17 28.23171 -81.78106 2266 ft 127 kts 206°
2026-04-26 20:17 28.22333 -81.78458 2122 ft 126 kts 207°
2026-04-26 20:17 28.21777 -81.78688 2023 ft 126 kts 207°
2026-04-26 20:18 28.20700 -81.79137 1831 ft 119 kts 207°
2026-04-26 20:18 28.19957 -81.79448 1696 ft 106 kts 207°
2026-04-26 20:18 28.19291 -81.79725 1577 ft 95 kts 209°
2026-04-26 20:18 28.18688 -81.79974 1471 ft 85 kts 210°
2026-04-26 20:19 28.18140 -81.80203 1376 ft 80 kts 209°
2026-04-26 20:19 28.17601 -81.80428 1289 ft 84 kts 209°
2026-04-26 20:19 28.17026 -81.80667 1245 ft 89 kts 207°
2026-04-26 20:19 28.16439 -81.80901 1239 ft 89 kts 209°
2026-04-26 20:20 28.15842 -81.81181 1244 ft 97 kts 212°
2026-04-26 20:20 28.15176 -81.81499 1246 ft 102 kts 209°
2026-04-26 20:20 28.14505 -81.81816 1229 ft 100 kts 211°
2026-04-26 20:20 28.13863 -81.82121 1228 ft 98 kts 210°
2026-04-26 20:21 28.13236 -81.82418 1218 ft 96 kts 211°
2026-04-26 20:21 28.12611 -81.82713 1220 ft 95 kts 210°
2026-04-26 20:21 28.12051 -81.83091 1201 ft 90 kts 235°
2026-04-26 20:21 28.11729 -81.83678 1200 ft 86 kts 246°
2026-04-26 20:22 28.11455 -81.84304 1198 ft 86 kts 249°
2026-04-26 20:22 28.11193 -81.84930 1199 ft 87 kts 248°
2026-04-26 20:22 28.10938 -81.85548 1198 ft 87 kts 249°
2026-04-26 20:22 28.10680 -81.86188 1192 ft 88 kts 248°
2026-04-26 20:23 28.10419 -81.86837 1205 ft 89 kts 248°
2026-04-26 20:23 28.10157 -81.87491 1202 ft 91 kts 248°
2026-04-26 20:23 28.09887 -81.88169 1200 ft 92 kts 249°
2026-04-26 20:23 28.09618 -81.88847 1198 ft 92 kts 248°
2026-04-26 20:24 28.09343 -81.89537 1201 ft 92 kts 249°
2026-04-26 20:24 28.09074 -81.90212 1198 ft 92 kts 249°
2026-04-26 20:24 28.08804 -81.90898 1196 ft 92 kts 248°
2026-04-26 20:24 28.08539 -81.91563 1192 ft 91 kts 249°
2026-04-26 20:25 28.08268 -81.92236 1193 ft 91 kts 244°
2026-04-26 20:25 28.07988 -81.92623 1203 ft 92 kts 232°
2026-04-26 20:25 28.07476 -81.93409 1187 ft 87 kts 259°
2026-04-26 20:25 28.07246 -81.94046 1186 ft 86 kts 266°
2026-04-26 20:26 28.07286 -81.94765 1144 ft 89 kts 273°
2026-04-26 20:26 28.07332 -81.95477 1158 ft 85 kts 274°
2026-04-26 20:26 28.07388 -81.96152 1166 ft 87 kts 275°
2026-04-26 20:26 28.07462 -81.96844 1131 ft 91 kts 275°
2026-04-26 20:27 28.07358 -81.97542 1079 ft 95 kts 246°
2026-04-26 20:27 28.06952 -81.98145 1037 ft 98 kts 231°
2026-04-26 20:27 28.06456 -81.98667 1101 ft 90 kts 229°
2026-04-26 20:27 28.05992 -81.99162 1081 ft 93 kts 229°
2026-04-26 20:28 28.05573 -81.99719 1086 ft 91 kts 240°
2026-04-26 20:28 28.05210 -82.00339 1071 ft 93 kts 241°
2026-04-26 20:28 28.04872 -82.00971 1067 ft 90 kts 244°
2026-04-26 20:28 28.04598 -82.01603 1075 ft 88 kts 250°
2026-04-26 20:29 28.04331 -82.02238 1055 ft 92 kts 244°
2026-04-26 20:29 28.03750 -82.02480 1070 ft 109 kts 166°
2026-04-26 20:29 28.03021 -82.02171 1072 ft 108 kts 170°
2026-04-26 20:29 28.02281 -82.01961 1086 ft 106 kts 176°
2026-04-26 20:30 28.01569 -82.01823 1129 ft 96 kts 180°
2026-04-26 20:30 28.00951 -82.01710 1170 ft 85 kts 179°
2026-04-26 20:30 28.00364 -82.01621 1161 ft 85 kts 182°
2026-04-26 20:30 27.99770 -82.01489 1164 ft 86 kts 177°
2026-04-26 20:31 27.99403 -82.00974 1185 ft 100 kts 79°
2026-04-26 20:31 27.99511 -82.00188 1167 ft 101 kts 72°
2026-04-26 20:31 27.99685 -81.99426 1170 ft 99 kts 68°
2026-04-26 20:31 27.99879 -81.98698 1171 ft 96 kts 74°
2026-04-26 20:32 27.99743 -81.97960 997 ft 99 kts 147°
2026-04-26 20:32 27.99215 -81.98077 721 ft 82 kts 243°
2026-04-26 20:32 27.99088 -81.98681 523 ft 78 kts 265°
2026-04-26 20:32 27.99065 -81.99271 438 ft 70 kts 266°
2026-04-26 20:33 27.99053 -81.99754 433 ft 55 kts 265°
2026-04-26 20:33 27.99038 -82.00209 415 ft 63 kts 263°
2026-04-26 20:33 27.99042 -82.00726 362 ft 68 kts 267°
2026-04-26 20:33 27.99042 -82.01281 286 ft 72 kts 267°
2026-04-26 20:34 27.99038 -82.01843 196 ft 69 kts 266°
2026-04-26 20:34 27.99037 -82.02305 127 ft 46 kts 268°
2026-04-26 20:34 27.99036 -82.02612 125 ft 33 kts 271°
2026-04-26 20:34 27.99034 -82.02879 125 ft 34 kts 270°
2026-04-26 20:35 27.99037 -82.03175 127 ft 37 kts 269°
2026-04-26 20:35 27.99001 -82.03359 128 ft 21 kts 201°
2026-04-26 20:35 27.98878 -82.03356 128 ft 15 kts 175°
2026-04-26 20:35 27.98815 -82.03254 126 ft 19 kts 92°
2026-04-26 20:36 27.98801 -82.03123 124 ft 9 kts 93°
2026-04-26 20:36 27.98804 -82.03032 124 ft 14 kts 60°
2026-04-26 20:36 27.98817 -82.02837 122 ft 34 kts 90°
2026-04-26 20:36 27.98794 -82.02726 122 ft 9 kts 160°
2026-04-26 20:37 27.98767 -82.02720 122 ft 0 kts 160°
2026-04-26 20:37 27.98758 -82.02679 122 ft 3 kts 123°
2026-04-26 20:37 27.98735 -82.02674 122 ft 3 kts 188°
2026-04-26 20:37 27.98722 -82.02658 122 ft 2 kts 73°
2026-04-26 20:38 27.98725 -82.02654 122 ft 0 kts 338°
2026-04-26 20:38 27.98724 -82.02654 122 ft 0 kts 338°